{"data":{"norad_id":65311,"intl_designator":"2025-187G","name":"HULIANWANG DIGUI-79","alt_names":[],"object_type":"PAYLOAD","status":"ACTIVE","operator":null,"country":"PRC","launch_date":"2025-08-25","launch_site_code":"WSC","launch_vehicle":null,"mission":null,"orbit_class":"UNKNOWN","rcs_meters":null,"size_class":null,"mass_kg":null,"dimensions":null,"purposes":[],"wikipedia_slug":null,"has_3d_model":false,"image_url":null,"decayed_at":null,"tle_current":{"epoch":"2026-09-20T22:47:40.652448Z","epoch_age_seconds":120023,"freshness":"FRESH","line1":"1 65311U 25187G   26263.94977607 -.00000095  00000+0  62022-4 0  9997","line2":"2 65311  50.0031 222.6913 0000695   2.2025 357.8850 13.29322472 52438","mean_motion":13.29322472,"eccentricity":6.95e-5,"inclination_deg":50.0031,"raan_deg":222.6913,"arg_perigee_deg":2.2025,"mean_anomaly_deg":357.885,"bstar":6.2022e-5,"rev_number":5243,"period_min":108.32586000246,"perigee_km":1148.7967320684,"apogee_km":1149.8430485761,"semimajor_km":7527.4568903223,"source":"CELESTRAK","updated_at":"2026-09-21T09:00:15.247135Z"}}}